Regional Weather Roundup
Issued by NWS

Home | Current Version | Previous Version | Graphics & Text | Print | Product List | Glossary On
Versions: 1 2 3 4 5 6 7 8 9 10 11 12 13 14 15 16 17 18 19 20 21 22 23 24 25 26 27 28 29 30 31 32 33 34 35 36 37 38 39 40 41 42 43 44 45 46 47 48 49 50
000
ASUS43 KTOP 252208
RWRKS

WEATHER ROUNDUP FOR KANSAS
NATIONAL WEATHER SERVICE GOODLAND KS
500 PM CDT MON MAY 25 2015

NOTE:  "FAIR" INDICATES FEW OR NO CLOUDS BELOW 12,000 FEET WITH NO
SIGNIFICANT WEATHER AND/OR OBSTRUCTIONS TO VISIBILITY.

KSZ001>006-013>018-027>032-041>047-252300-
NORTHWEST KANSAS

CITY           SKY/WX    TMP DP  RH WIND       PRES   REMARKS
GOODLAND       MOSUNNY   69  49  48 NW16      29.86F
HAYS           MOSUNNY   73  57  56 SW9       29.76F
HILL CITY      PTSUNNY   78  54  43 NW10      29.77F
RUSSELL        MOSUNNY   76  59  55 SW12      29.73F
$$

KSZ061>065-074>080-084>089-252300-
SOUTHWEST KANSAS

CITY           SKY/WX    TMP DP  RH WIND       PRES   REMARKS
DODGE CITY     CLOUDY    74  54  49 S8        29.82S
ELKHART          N/A     74  47  38 S6          N/A
GARDEN CITY    PTSUNNY   72  52  49 SW3       29.81F
GREAT BEND     MOSUNNY   75  63  64 W10G17    29.75R
LIBERAL        CLOUDY    73  52  46 S20       29.85S
PRATT          PTSUNNY   75  54  46 SW20      29.80R
$$

KSZ066>073-081>083-090>101-252300-
SOUTHEAST KANSAS

CITY           SKY/WX    TMP DP  RH WIND       PRES   REMARKS
CHANUTE        CLOUDY    78  67  68 S16       29.83F
COFFEYVILLE    CLOUDY    77  69  76 SE8       29.82F
HUTCHINSON     PTSUNNY   73  54  51 SE15      29.75F
MEDICINE LODGE   N/A     78  53  41 SW16G22   29.79R
NEWTON         CLOUDY    66  54  63 SW10G22   29.83R
PARSONS        CLOUDY    78  68  71 S8        29.84F
WICHITA INTL   TSTM      75  67  76 S14       29.81R
WICHITA JABRA  CLOUDY    76  65  68 S14       29.81R
WINFIELD       CLOUDY    77  65  66 S15       29.82R
$$

KSZ007>012-019>026-033>040-048>060-102>105-252300-
NORTHEAST KANSAS

CITY           SKY/WX    TMP DP  RH WIND       PRES   REMARKS
CONCORDIA      PTSUNNY   75  61  61 S9        29.75F
EMPORIA        PTSUNNY   78  65  63 S16       29.79F
LAWRENCE       MOSUNNY   80  64  58 S15G23    29.80F
MANHATTAN      CLOUDY    77  66  68 S10       29.75F
OLATHE IND     MOSUNNY   81  64  56 S17G28    29.82F
OLATHE EXE     MOSUNNY   79  66  64 S17G28    29.81F
SALINA         HVY RAIN  65  57  75 S29G39    29.75F
TOPEKA BILLARD MOSUNNY   79  65  62 S16G24    29.77F
TOPEKA FORBES  MOSUNNY   79  65  62 S20       29.77F
$$



USA.gov is the U.S. government's official web portal to all federal, state and local government web resources and services.